Regional Weather Roundup
Issued by NWS

Home | Current Version | Previous Version | Text Only | Print | Product List | Glossary Off
Versions: 1 2 3 4 5 6 7 8 9 10 11 12 13 14 15 16 17 18 19 20 21 22 23 24 25 26 27 28 29 30 31 32 33 34 35 36 37 38 39 40 41 42 43 44 45 46 47 48 49 50

330
ASUS43 KFSD 231410
RWRSD

WEATHER ROUNDUP FOR SOUTH DAKOTA
NATIONAL WEATHER SERVICE SIOUX FALLS SD
900 AM CDT SUN JUL 23 2017

NOTE: "FAIR" INDICATES FEW OR NO CLOUDS BELOW 12,000 FEET WITH NO
SIGNIFICANT WEATHER AND/OR OBSTRUCTIONS TO VISIBILITY.


SDZ001>005-009-010-012>017-231500-
NORTHWEST AND NORTH CENTRAL SOUTH DAKOTA

CITY           SKY/WX    TMP DP  RH WIND       PRES   REMARKS
BUFFALO          N/A     67  50  54 CALM      30.05S
FAITH            N/A     70  53  54 SE5       30.10S
MOBRIDGE       SUNNY     68  60  75 N8        30.06R
$$

SDZ012>016-024>037-041>051-057-063-072>074-231500-
SOUTHWEST AND SOUTH CENTRAL SOUTH DAKOTA

CITY           SKY/WX    TMP DP  RH WIND       PRES   REMARKS
RAPID CTY ARPT SUNNY     72  46  39 CALM      30.13R
PIERRE         SUNNY     69  55  60 NE3       30.06R
CUSTER         SUNNY     67  40  37 E12       30.25R
ELLSWORTH AFB  SUNNY     70  45  40 CALM      30.12S
PHILIP         SUNNY     69  52  54 CALM      30.09R
PINE RIDGE     SUNNY     68  56  65 CALM      30.12R
SPEARFISH      FAIR      68  45  42 CALM      30.15S
WINNER         FAIR      70  54  56 NW3       30.08R
$$

SDZ004>011-016>023-039-040-231500-
NORTHEAST SOUTH DAKOTA

CITY           SKY/WX    TMP DP  RH WIND       PRES   REMARKS
ABERDEEN       SUNNY     68  60  75 N10       30.04R
WATERTOWN      SUNNY     66  60  81 N15       30.01R
BROOKINGS      SUNNY     68  60  75 N10       30.02R
SISSETON         N/A     66  61  84 N16       29.99R
$$

SDZ017-020-022-023-036>040-048>070-231500-
SOUTHEAST SOUTH DAKOTA

CITY           SKY/WX    TMP DP  RH WIND       PRES   REMARKS
SIOUX FALLS    MOSUNNY   72  62  71 NW10      30.00R
HURON          SUNNY     68  61  78 N13       30.03R
CHAMBERLAIN    SUNNY     73  58  58 N5        30.05S
MITCHELL       SUNNY     71  62  73 N7        30.02R
YANKTON        SUNNY     73  61  65 N6        30.00S
$$

ABBREVIATIONS USED IN REMARKS
   TC - TEMPERATURE IN CELSIUS
  WCI - WIND CHILL INDEX
   HX - HEAT INDEX
  VSB - VISIBILITY





USA.gov is the U.S. government's official web portal to all federal, state and local government web resources and services.